User: anonymous   Login
Location: Unspecified
(0.0000°N, 0.0000°E)
Time: 14:50:23
(UTC+02:00)
Language:

NATO 3D Rocket - Orbit

View from above orbital plane
View from above orbital plane
View from above satellite
View from above satellite

Ground track
Ground track

The orbit data is extracted from the following two-line orbital elements,

1 15392U 84115B   16204.49865086 +.00000240 +00000-0 +64750-4 0  9990
2 15392 021.4983 017.6333 1034615 210.2188 143.4379 12.45533715425080
Epoch (UTC): 22 July 2016 11:58:03
Eccentricity: 0.1034615
inclination: 21.4983°
perigee height: 670 km
apogee height: 2296 km
right ascension of ascending node: 17.6333°
argument of perigee: 210.2188°
revolutions per day: 12.45533715
mean anomaly at epoch: 143.4379°
orbit number at epoch: 42508

The dashed part of the orbit path shows where the satellite is in the earth's shadow,  

DLR